27 Sep
2006
27 Sep
'06
11:18 p.m.
ISS 1 25544U 98067A 06270.97453704 .00011852 00000-0 77603-4 0 7547 2 25544 051.6383 017.9684 0012959 033.4192 121.5807 15.76221155449377
6659
Age (days ago)
6659
Last active (days ago)
0 comments
1 participants
participants (1)
-
Dave Larsen PhD